User: anonymous   Login
Location: Solon
(41.3849°N, 81.4081°W)
Time: 19:40:35
(UTC-04:00)
Language:

CZ-2C R/B - Orbit

View from above orbital plane
View from above orbital plane
View from above satellite
View from above satellite

Ground track
Ground track

The orbit data is extracted from the following two-line orbital elements,

1 28480U 04046B   15142.41627433  .00000122  00000-0  62476-4 0  9993
2 28480 098.1365 278.1774 0141162 299.1417 128.9282 14.25499670546419
Epoch (UTC): 22 May 2015 09:59:26
Eccentricity: 0.0141162
inclination: 98.1365°
perigee height: 705 km
apogee height: 908 km
right ascension of ascending node: 278.1774°
argument of perigee: 299.1417°
revolutions per day: 14.25499670
mean anomaly at epoch: 128.9282°
orbit number at epoch: 54641

The dashed part of the orbit path shows where the satellite is in the earth's shadow,  

DLR